This demonstration page uses our WeatherBlox Daily Observations layout. Learn more.

Left ArrowRight Arrow

Hourly Observations for June 6, 2021

Temp ( °F °C ) Dew Point ( °F °C ) Humidity (%) Winds ( mph kmh ) Pressure ( in mb ) Visibility ( mi km ) Precip ( " mm )
12:15 am 00:15 Clear 70 21.1 56 13.5 62 62 S 12 19 29.71 1006 10 16 N/A
12:35 am 00:35 Clear 69 20.6 56 13.5 64 64 S 12 19 29.71 1006 10 16 N/A
12:55 am 00:55 Clear 68 20.2 56 13.5 66 66 S 12 19 29.71 1006 10 16 N/A
1:15 am 01:15 Clear 68 20 56 13.6 67 67 S 10 17 29.71 1006 10 16 N/A
1:35 am 01:35 Clear 67 19.7 57 13.8 69 69 S 13 20 29.71 1006 10 16 N/A
1:55 am 01:55 Clear 67 19.4 57 14.1 72 72 S 12 19 29.71 1006 10 16 N/A
2:15 am 02:15 Clear 66 19.1 58 14.5 75 75 S 12 19 29.72 1006 10 16 N/A
2:35 am 02:35 Clear 66 19 59 15.1 78 78 S 14 22 29.71 1006 10 16 N/A
2:55 am 02:55 Clear 66 18.8 60 15.3 80 80 S 12 19 29.71 1006 10 16 N/A
3:15 am 03:15 Clear 65 18.6 60 15.5 82 82 S 12 19 29.71 1006 10 16 N/A
3:35 am 03:35 Clear 65 18.5 60 15.7 84 84 S 13 20 29.71 1006 10 16 N/A
3:55 am 03:55 Clear 65 18.5 61 15.9 85 85 S 12 19 29.72 1006 10 16 N/A
4:15 am 04:15 Clear 65 18.3 61 16 87 87 S 10 17 29.72 1006 10 16 N/A
4:35 am 04:35 Clear 64 18 61 15.9 88 88 S 10 17 29.72 1007 10 16 N/A
4:55 am 04:55 Clear 64 17.8 61 16 89 89 S 10 17 29.73 1007 10 16 N/A
5:15 am 05:15 Clear 64 17.5 61 16 91 91 S 9 15 29.72 1006 10 16 N/A
5:35 am 05:35 Clear 64 17.6 61 16.2 92 92 S 10 17 29.72 1006 10 16 N/A
5:55 am 05:55 Clear 64 17.7 61 16.3 92 92 S 12 19 29.71 1006 10 16 N/A
6:15 am 06:15 Sunny 64 17.5 61 16.2 92 92 S 12 19 29.71 1006 10 16 N/A
6:35 am 06:35 Sunny 64 17.6 62 16.5 93 93 S 10 17 29.71 1006 10 16 N/A
6:55 am 06:55 Sunny 64 18 62 16.5 91 91 S 12 19 29.70 1006 10 16 N/A
7:15 am 07:15 Sunny 65 18.5 62 16.7 89 89 S 14 22 29.70 1006 10 16 N/A
7:35 am 07:35 Sunny 66 19 62 16.7 87 87 S 15 24 29.70 1006 10 16 N/A
7:55 am 07:55 Sunny 67 19.5 62 16.8 84 84 SSW 17 28 29.68 1005 10 16 N/A
8:15 am 08:15 Sunny 68 20.2 62 16.7 80 80 SSW 15 24 29.69 1005 10 16 N/A
8:35 am 08:35 Sunny 70 20.9 62 16.6 77 77 SSW 14 22 29.67 1005 10 16 N/A
8:55 am 08:55 Sunny 71 21.7 62 16.8 74 74 S 16 26 29.66 1005 10 16 N/A
9:15 am 09:15 Sunny 73 22.5 62 16.9 71 71 SSW 20 31 29.67 1005 10 16 N/A
9:35 am 09:35 Sunny 73 23 62 16.7 68 68 SSW 20 31 29.65 1004 10 16 N/A
9:55 am 09:55 Sunny 74 23.6 62 16.8 66 66 S 20 31 29.65 1004 10 16 N/A
10:15 am 10:15 Sunny 76 24.3 62 16.8 63 63 S 22 35 29.63 1003 10 16 N/A
10:35 am 10:35 Sunny 77 25 62 16.9 61 61 S 20 31 29.63 1003 10 16 N/A
10:55 am 10:55 Sunny 78 25.3 61 16.2 57 57 S 20 31 29.63 1003 10 16 N/A
11:15 am 11:15 Sunny 79 26.2 61 16 53 53 SSW 22 35 29.61 1003 10 16 N/A
11:35 am 11:35 Sunny 80 26.9 61 16.2 52 52 SSW 20 31 29.61 1003 10 16 N/A
11:55 am 11:55 Sunny 81 27.3 61 16.3 51 51 S 16 26 29.61 1003 10 16 N/A
12:15 pm 12:15 Sunny 82 27.6 62 16.5 51 51 SSW 17 28 29.62 1003 10 16 N/A
12:35 pm 12:35 Partly Cloudy 82 28 63 17 51 51 S 17 28 29.61 1003 10 16 N/A
12:55 pm 12:55 Partly Cloudy 82 28 64 17.5 53 53 S 21 33 29.61 1003 10 16 N/A
1:15 pm 13:15 Partly Cloudy 83 28.3 63 17.4 52 52 S 15 24 29.61 1003 10 16 N/A
1:35 pm 13:35 Sunny 83 28.6 62 16.6 48 48 S 17 28 29.60 1002 10 16 N/A
1:55 pm 13:55 Sunny 83 28.5 63 17.1 50 50 SSW 15 24 29.60 1002 10 16 N/A
2:15 pm 14:15 Sunny 84 28.8 63 17.1 49 49 SSW 15 24 29.60 1002 10 16 N/A
2:35 pm 14:35 Sunny 84 28.9 63 17.2 49 49 S 18 30 29.60 1002 10 16 N/A
2:55 pm 14:55 Sunny 84 28.8 63 17.2 50 50 S 18 30 29.59 1002 10 16 N/A
3:15 pm 15:15 Partly Cloudy 84 28.7 64 17.6 51 51 S 16 26 29.59 1002 10 16 N/A
3:35 pm 15:35 Sunny 84 28.7 64 17.5 51 51 S 16 26 29.60 1002 10 16 N/A
3:55 pm 15:55 Sunny 84 29.1 64 17.6 50 50 S 14 22 29.59 1002 10 16 N/A
4:15 pm 16:15 Sunny 84 29.1 64 17.7 50 50 S 14 22 29.58 1002 10 16 N/A
4:35 pm 16:35 Sunny 84 29.1 64 17.5 50 50 S 16 26 29.58 1002 10 16 N/A
4:55 pm 16:55 Sunny 85 29.5 64 17.5 48 48 S 15 24 29.57 1001 10 16 N/A
5:15 pm 17:15 Sunny 85 29.5 63 17.3 48 48 SSE 10 17 29.57 1001 10 16 N/A
5:35 pm 17:35 Sunny 85 29.5 63 17.2 48 48 S 14 22 29.56 1001 10 16 N/A
5:55 pm 17:55 Sunny 85 29.5 63 17.2 48 48 S 13 20 29.56 1001 10 16 N/A
6:15 pm 18:15 Sunny 85 29.5 63 17.1 47 47 S 15 24 29.56 1001 10 16 N/A
6:35 pm 18:35 Sunny 85 29.5 63 17 47 47 S 12 19 29.56 1001 10 16 N/A
6:55 pm 18:55 Sunny 85 29.5 62 16.5 45 45 SSE 15 24 29.56 1001 10 16 N/A
7:15 pm 19:15 Sunny 85 29.2 60 15.7 44 44 SSE 14 22 29.57 1001 10 16 N/A
7:35 pm 19:35 Sunny 84 29 60 15.4 44 44 S 12 19 29.58 1002 10 16 N/A
7:55 pm 19:55 Sunny 83 28.5 61 16.3 48 48 SSE 14 22 29.59 1002 10 16 N/A
8:15 pm 20:15 Sunny 82 27.9 63 17.2 52 52 SSE 12 19 29.60 1002 10 16 N/A
8:35 pm 20:35 Sunny 81 27.2 64 17.5 55 55 SSE 9 15 29.61 1003 10 16 N/A
8:55 pm 20:55 Sunny 80 26.4 64 17.5 58 58 SSE 10 17 29.63 1003 10 16 N/A
9:15 pm 21:15 Clear 78 25.5 63 17.1 60 60 SSE 9 15 29.64 1004 10 16 N/A
9:35 pm 21:35 Clear 76 24.6 63 17.2 64 64 SSE 9 15 29.66 1004 10 16 N/A
9:55 pm 21:55 Clear 76 24.3 63 17.2 65 65 SSE 9 15 29.67 1005 10 16 N/A
10:15 pm 22:15 Clear 74 23.6 63 17.3 68 68 SSE 10 17 29.69 1005 10 16 N/A
10:35 pm 22:35 Clear 74 23.2 63 17.2 69 69 SSE 9 15 29.70 1006 10 16 N/A
10:55 pm 22:55 Clear 73 23 63 17 69 69 SSE 10 17 29.71 1006 10 16 N/A
11:15 pm 23:15 Clear 73 22.8 63 17 70 70 SSE 9 15 29.71 1006 10 16 N/A
11:35 pm 23:35 Clear 73 22.7 63 17 70 70 SSE 9 15 29.72 1006 10 16 N/A
11:55 pm 23:55 Clear 73 22.5 62 16.8 70 70 S 9 15 29.72 1006 10 16 N/A

Powered by AerisWeather